Location: Gorze? G�rny
(49.8500°N, 19.5000°E)
Time: 05:15:48
(UTC+00:00)

Meteor 1-23 Rocket - Pass Details

Date: 13 May 2021
Orbit: 838 x 887 km, 81.3° (Epoch: 20 June)

Event Time Altitude Azimuth Distance (km) Brightness Sun altitude
Exits shadow 22:46:29 41° 159° (SSE) 1,262 4.6 -21.5°
Maximum altitude 22:48:24 63° 97° (E) 986 4.4 -21.5°
Drops below altitude 10° 22:54:10 10° 17° (NNE) 2,563 7.8 -21.4°
Sets 22:56:39 0° 15° (NNE) 3,504 8.9 -21.4°
